Погода в Лосе-Реалехосе

Испания     28°22′48″N   16°35′00″W
темп.,
°C
ветер,
м/с
пор.,
м/с
влажн.,
%
обл.,
%
осадки,
мм/ч
давл.,
гПа
погр.,
м
26 сентября, вс
вс2601:00+22в667211 0.0 1019519
04:00+21всв66735 0.0 1019475
07:00+21всв777484 0.0 1019454
10:00+22всв777154 0.0 1020441
13:00+23св8771100 0.0 1020418
16:00+23св877355 0.0 1019425
19:00+22св76785 0.0 1020403
22:00+22всв668011 0.0 1022429
27 сентября, пн
пн2701:00+22всв667811 0.0 1021393
04:00+22всв78798 0.0 1020398
07:00+22всв787812 0.0 1020392
10:00+23всв897613 0.0 1021317
13:00+24всв987517 0.0 1021433
16:00+24всв887416 0.0 1020366
19:00+23св877816 0.1 1021446
22:00+22в887919 0.0 1022337
28 сентября, вт
вт2801:00+22всв777816 0.0 1022429
04:00+22всв678111 0.0 1021421
07:00+22всв788212 0.0 1021446
10:00+22всв88798 0.0 1022510
13:00+23всв99744 0.0 1022543
16:00+23всв99745 0.0 1021520
19:00+22всв87771 0.0 1021524
22:00+21всв888010 0.0 1023530
29 сентября, ср
ср2901:00+21всв888111 0.0 1023609
04:00+21св888113 0.0 1021698
07:00+21св788014 0.0 1021773
10:00+22св887716 0.0 1022858
13:00+22св887552 0.1 1023895
16:00+22св777664 0.0 1021873
19:00+21св677770 0.1 1021876
22:00+21св677868 0.1 1022857
30 сентября, чт
чт3001:00+20св578377 0.2 1022782
04:00+21св677576 0.1 1020929
07:00+21св568078 0.2 1020901
10:00+21св667544 0.0 1021898
13:00+22св777663 0.1 1021836
16:00+22св777767 0.0 1019766
19:00+22св778068 0.1 1019741
22:00+22св668171 0.1 1020716